EW9479 Weather Reports


Display with metric or nautical units.
time (UTC)temp
F
wind
direction
speed
MPH
gust
MPH
rain 1hr
in
rain 24hr
in
rain mn
in
humidity
%
barometer
mb
20260508073038 47 0 0.0 1.0 0.00 0.00 0.00 92 1017.3
20260508071537 47 0 0.0 0.0 0.00 0.00 0.00 92 1017.3
20260508070040 47 0 0.0 1.0 0.00 0.00 0.00 92 1017.5
20260508064549 48 0 0.0 0.0 0.00 0.00 0.00 92 1017.7
20260508063044 48 134 0.0 1.0 0.00 0.00 0.00 92 1017.9
20260508061544 48 0 0.0 0.0 0.00 0.00 0.00 91 1017.7
20260508060042 48 0 0.0 0.0 0.00 0.00 0.00 91 1017.7
20260508054540 49 0 0.0 0.0 0.00 0.00 0.00 91 1017.9
20260508053038 49 0 0.0 0.0 0.00 0.00 0.00 91 1018.0
20260508051541 49 0 0.0 0.0 0.00 0.00 0.00 91 1018.0
20260508050043 49 0 0.0 1.0 0.00 0.00 0.00 91 1018.0
20260508044543 49 0 0.0 0.0 0.00 0.00 0.00 90 1018.1
20260508043046 50 0 0.0 0.0 0.00 0.00 0.00 90 1018.2
20260508041538 50 0 0.0 0.0 0.00 0.00 0.00 90 1018.0
20260508040041 50 0 0.0 0.0 0.00 0.00 0.00 89 1017.9
20260508034538 51 0 0.0 0.0 0.00 0.00 0.00 89 1017.9
20260508033038 51 0 0.0 1.0 0.00 0.00 0.00 88 1018.1
20260508031544 52 0 0.0 0.0 0.00 0.00 0.00 88 1018.0
20260508030042 52 0 0.0 0.0 0.00 0.00 0.00 87 1018.0
20260508024545 52 0 0.0 0.0 0.00 0.00 0.00 85 1017.9
20260508023039 53 0 0.0 0.0 0.00 0.00 0.00 84 1017.8
20260508021541 54 0 0.0 0.0 0.00 0.00 0.00 83 1017.6
20260508020044 54 0 0.0 0.0 0.00 0.00 0.00 80 1017.3
20260508014647 55 0 0.0 0.0 0.00 0.00 0.00 80 1017.1
20260508004537 62 0 0.0 0.0 0.00 0.00 0.00 68 1017.1
20260508003057 65 0 0.0 1.0 0.00 0.00 0.00 63 1016.9
20260508001545 68 0 0.0 1.0 0.00 0.00 0.00 59 1016.6
20260508000045 66 49 0.0 1.0 0.00 0.00 0.00 54 1016.5
20260507234611 67 0 0.0 2.0 0.00 0.00 0.00 53 1016.6
20260507233038 67 301 2.0 4.0 0.00 0.00 0.00 52 1016.5
20260507231544 67 328 2.0 5.0 0.00 0.00 0.00 50 1016.4
20260507230044 67 291 1.0 5.0 0.00 0.00 0.00 48 1016.5
20260507224600 67 322 2.0 5.0 0.00 0.00 0.00 52 1016.5
20260507223050 67 303 4.0 7.0 0.00 0.00 0.00 49 1016.5
20260507221539 68 290 1.0 7.0 0.00 0.00 0.00 48 1016.4
20260507220044 68 304 1.0 5.0 0.00 0.00 0.00 52 1016.3
20260507214542 67 326 3.0 10.0 0.00 0.02 0.00 50 1016.5
20260507213043 68 72 3.0 7.0 0.00 0.02 0.00 50 1016.5
20260507211554 67 23 3.0 7.0 0.00 0.02 0.00 52 1016.5
20260507210041 67 326 5.0 9.0 0.00 0.02 0.00 50 1016.6
20260507204538 68 327 2.0 5.0 0.00 0.07 0.00 47 1016.7
20260507203044 67 65 2.0 8.0 0.00 0.07 0.00 51 1016.9
20260507201543 67 356 1.0 8.0 0.00 0.07 0.00 53 1016.9
20260507200047 67 288 2.0 7.0 0.00 0.07 0.00 53 1017.0
20260507194541 66 294 1.0 9.0 0.00 0.07 0.00 52 1017.1
20260507193039 66 274 4.0 9.0 0.00 0.07 0.00 52 1017.2
20260507191539 66 295 4.0 9.0 0.00 0.07 0.00 52 1017.2
20260507190038 66 47 3.0 7.0 0.00 0.07 0.00 53 1017.4
20260507184537 65 306 3.0 10.0 0.00 0.07 0.00 55 1017.3
20260507183043 65 78 4.0 11.0 0.00 0.07 0.00 54 1017.4
20260507181542 64 231 3.0 11.0 0.00 0.07 0.00 54 1017.5
20260507180045 64 309 6.0 14.0 0.00 0.07 0.00 54 1017.8
20260507174539 64 299 4.0 8.0 0.00 0.07 0.00 54 1017.8
20260507173044 63 306 4.0 12.0 0.00 0.07 0.00 58 1017.9
20260507171542 64 295 2.0 9.0 0.00 0.07 0.00 59 1018.2
20260507170043 63 58 3.0 11.0 0.00 0.07 0.00 58 1018.4
20260507164541 63 290 4.0 9.0 0.00 0.07 0.00 57 1018.3
20260507163039 63 307 3.0 9.0 0.00 0.07 0.00 58 1018.8
20260507161539 62 288 4.0 7.0 0.00 0.07 0.00 58 1018.6
20260507160039 62 14 3.0 8.0 0.00 0.07 0.00 62 1018.5
20260507154544 62 58 2.0 7.0 0.00 0.07 0.00 65 1018.8
20260507153042 61 69 1.0 8.0 0.00 0.07 0.00 62 1018.9
20260507151543 61 62 2.0 9.0 0.00 0.07 0.00 66 1019.2
20260507150038 60 313 2.0 7.0 0.00 0.07 0.00 70 1018.8
20260507144538 59 346 2.0 8.0 0.00 0.07 0.00 71 1018.9
20260507143037 58 20 3.0 9.0 0.00 0.07 0.00 72 1019.0
20260507141543 57 47 3.0 8.0 0.00 0.07 0.00 75 1018.7
20260507140056 57 24 3.0 7.0 0.00 0.07 0.00 77 1018.5
20260507134541 56 147 3.0 6.0 0.00 0.07 0.00 79 1018.5
20260507133040 55 30 2.0 5.0 0.00 0.07 0.00 81 1018.5
20260507131544 54 32 2.0 6.0 0.00 0.07 0.00 83 1018.5
20260507130044 54 46 1.0 6.0 0.00 0.07 0.00 84 1018.4
20260507124538 52 0 1.0 4.0 0.00 0.07 0.00 87 1018.2
20260507123043 51 69 0.0 4.0 0.00 0.07 0.00 90 1018.1
20260507121540 50 63 1.0 4.0 0.00 0.07 0.00 91 1017.8
20260507120039 49 324 0.0 2.0 0.00 0.07 0.00 92 1017.7
20260507114538 49 72 0.0 2.0 0.00 0.07 0.00 92 1017.3
20260507113040 49 4 0.0 2.0 0.00 0.07 0.00 92 1017.1
20260507111547 49 0 0.0 1.0 0.00 0.07 0.00 92 1017.1
20260507110049 49 79 0.0 2.0 0.00 0.07 0.00 92 1017.0
20260507104541 49 0 0.0 5.0 0.00 0.12 0.00 92 1016.9
20260507103039 49 24 1.0 5.0 0.00 0.12 0.00 92 1016.7
20260507101556 50 0 1.0 3.0 0.00 0.12 0.00 92 1016.7
20260507100038 50 53 0.0 3.0 0.00 0.12 0.00 92 1016.5
20260507094541 50 0 0.0 2.0 0.00 0.14 0.00 92 1016.5
20260507093042 50 146 0.0 1.0 0.00 0.14 0.00 92 1016.2
20260507091553 51 42 0.0 1.0 0.00 0.14 0.00 92 1016.2
20260507090051 51 0 0.0 2.0 0.00 0.14 0.00 92 1016.4
20260507084538 51 3 0.0 2.0 0.00 0.24 0.00 92 1015.8
20260507083045 51 0 0.0 1.0 0.00 0.24 0.00 92 1016.1
20260507081553 52 298 0.0 1.0 0.00 0.24 0.00 92 1016.4
20260507080041 52 0 0.0 1.0 0.00 0.24 0.00 92 1016.3
20260507074542 52 0 0.0 2.0 0.00 0.40 0.00 92 1016.2